Regional Weather Roundup
Issued by NWS

Home | Current Version | Previous Version | Text Only | Print | Product List | Glossary Off
Versions: 1 2 3 4 5 6 7 8 9 10 11 12 13 14 15 16 17 18 19 20 21 22 23 24 25 26 27 28 29 30 31 32 33 34 35 36 37 38 39 40 41 42 43 44 45 46 47 48 49 50

000
ASUS43 KLOT 042003
RWRIL

ILLINOIS REGIONAL WEATHER ROUNDUP
NATIONAL WEATHER SERVICE CHICAGO/ROMEOVILLE IL
200 PM CST SUN DEC 04 2016

NOTE: "FAIR" INDICATES FEW OR NO CLOUDS BELOW 12,000 FEET WITH NO
SIGNIFICANT WEATHER AND/OR OBSTRUCTIONS TO VISIBILITY.

* THESE STATIONS ARE NOT UNDER NWS QUALITY CONTROL. THEY ALSO MAY NOT
  REPORT WEATHER SUCH AS PRECIPITATION OR FOG.

ILZ001-002-007-009-015-016-024-042100-
NORTHWEST ILLINOIS

CITY           SKY/WX    TMP DP  RH WIND       PRES   REMARKS
MOLINE         LGT SNOW  33  30  88 SE6       29.92F VSB 1   WCI  28
STERLING*      SNOW      34  31  88 CALM      29.95F VSB 1/2
$$

ILZ003-004-008-010-011-017-018-042100-
NORTH CENTRAL ILLINOIS

CITY           SKY/WX    TMP DP  RH WIND       PRES   REMARKS
ROCKFORD       HVY SNOW  31  29  92 S6        29.96F VSB 1/4 WCI  25
FREEPORT*      LGT SNOW  30  29  97 S3        29.95F VSB 3/4
ROCHELLE*      SNOW      31  30  96 CALM      29.94F VSB 1/2
$$

ILZ005-006-012>014-019>023-042100-
NORTHEAST ILLINOIS

CITY           SKY/WX    TMP DP  RH WIND       PRES   REMARKS
CHICAGO-OHARE  SNOW      32  31  96 SE5       29.94F VSB 1/4 WCI  27
CHICAGO-MIDWAY SNOW      33  30  88 E6        29.94F VSB 1/2 WCI  28
AURORA         SNOW      32  30  92 E8        29.93F VSB 1/4 WCI  25
LANSING*       LGT SNOW  32  32 100 CALM      29.95F VSB 3/4
WAUKEGAN       SNOW      33  32  96 S7        29.94F VSB 1/4 WCI  27
DUPAGE AIRPORT SNOW      32  29  88 E5        29.93F VSB 1/4 WCI  27
WHEELING       SNOW      32  31  96 S3        29.96F VSB 1/4
NORTHERLY ISL    N/A     33  31  92 SE3         N/A
$$

LMZ740>746-042100-
SOUTHERN LAKE MICHIGAN

STATION/POSITION SKY/WX   TEMP    WIND        PRES    VSBY  WAVE
                          AIR SEA DIR/SP/G                  HT/PER
                          (F)     (DEG/KT/KT) (MB)    (MI)  (FT/S)
SOUTHERN BUOY              36 48  140/ 14/ 17 1014.7F         2/ 4
HARRISON CRIB              34     150/  7/  8   N/A
BURNHAM HARBOR             33     120/  4/  5   N/A
CALUMET HARBOR             33     130/  2/  4 1014.0F
BURNS HARBOR               33      90/  7/  9 1014.6F
$$

ILZ025>027-034>036-040-047-049-050-058-095>099-042100-
WEST-CENTRAL ILLINOIS

CITY           SKY/WX    TMP DP  RH WIND       PRES   REMARKS
QUINCY         CLOUDY    33  33 100 SW5       29.92F FOG     WCI  29
GALESBURG*     LGT SNOW  33  32  99 E3        29.91F
JACKSONVILLE*  LGT SNOW  33  32  99 CALM      29.92F
PITTSFIELD*    CLOUDY    33  33  99 CALM      29.93F
$$

ILZ028>032-037-038-041>044-048-051>054-059>061-042100-
CENTRAL ILLINOIS

CITY           SKY/WX    TMP DP  RH WIND       PRES   REMARKS
BLOOMINGTON    SNOW      33  31  92 E12       29.88F VSB 1/4 WCI  24
DECATUR        FOG      N/A N/A N/A E6        29.90F VSB 1/4
PEORIA         SNOW      33  32  96 NE3       29.93F VSB 1/2
SPRINGFIELD    SNOW      34  32  92 CALM      29.92F VSB 1/2
TAYLORVILLE    NOT AVBL
$$

ILZ033-039-045-046-055>057-062-063-042100-
EAST-CENTRAL ILLINOIS

CITY           SKY/WX    TMP DP  RH WIND       PRES   REMARKS
CHAMPAIGN      SNOW      33  31  92 E5        29.91F VSB 1/2 WCI  29
MATTOON        LGT RAIN  36  34  92 W6        29.91S FOG     WCI  31
PARIS*         RAIN      37  37  99 CALM      29.92S
$$

ILZ079-100>102-042100-
SOUTHWEST ILLINOIS

CITY           SKY/WX    TMP DP  RH WIND       PRES   REMARKS
ALTON          LGT RAIN  36  34  93 W7        29.94F WCI  30
BELLEVILLE     LGT RAIN  39  39  99 W10       29.93F WCI  32
CAHOKIA*       CLOUDY    39  36  89 W7        29.94F WCI  34
SPARTA*        DRIZZLE   40  38  95 W8        29.95F
$$

ILZ064>066-069>071-074>076-080>082-084>086-088>090-092>094-042100-
SOUTH-CENTRAL ILLINOIS

CITY           SKY/WX    TMP DP  RH WIND       PRES   REMARKS
CARBONDALE     LGT RAIN  42  42 100 W10       29.94S FOG
CAIRO*         DRIZZLE   44  43  97 SW6       29.95S
MARION         LGT RAIN  45  43  93 SW12      29.95R
CENTRALIA*     LGT RAIN  41  40  98 W8        29.92F
SALEM*         LGT RAIN  41  39  91 SW12      29.93S
$$

ILZ067-068-072-073-078-083-087-091-042100-
SOUTHEAST ILLINOIS

CITY           SKY/WX    TMP DP  RH WIND       PRES   REMARKS
LAWRENCEVILLE  LGT RAIN  43  41  93 S12       29.91F FOG
HARRISBURG*    DRIZZLE   44  43  98 SW8       29.93S
ROBINSON*      LGT RAIN  40  40  99 SW5       29.91F
CARMI*         CLOUDY    43  43  99 S10       29.92R FOG
$$

ABBREVIATIONS USED IN REMARKS
   TC - TEMPERATURE IN CELSIUS
  WCI - WIND CHILL INDEX
   HX - HEAT INDEX
  VSB - VISIBILITY
$$





USA.gov is the U.S. government's official web portal to all federal, state and local government web resources and services.